Regional Weather Roundup
Issued by NWS

Home | Current Version | Previous Version | Graphics & Text | Print | Product List | Glossary On
Versions: 1 2 3 4 5 6 7 8 9 10 11 12 13 14 15 16 17 18 19 20 21 22 23 24 25 26 27 28 29 30 31 32 33 34 35 36 37 38 39 40 41 42 43 44 45 46 47 48 49 50
000
ASUS43 KLSX 030507
RWRMO

WEATHER SUMMARY FOR MISSOURI
NATIONAL WEATHER SERVICE SPRINGFIELD MO
1200 AM CDT SUN MAY 03 2015

NOTE: "FAIR" INDICATES FEW OR NO CLOUDS BELOW 12,000 FEET WITH NO
       SIGNIFICANT WEATHER AND/OR OBSTRUCTIONS TO VISIBILITY.
       CURRENT SKY AND/OR WEATHER CONDITIONS ARE NOT AVAILABLE FOR
       CHILLICOTHE AND FARMINGTON.

MOZ001>031-035>038-043-044-053-054-030600-
...NORTHERN AND WESTERN MISSOURI...

CITY           SKY/WX    TMP DP  RH WIND       PRES   REMARKS
KANSAS CTY INT CLOUDY    66  53  63 S16       29.88F
KANSAS C DTWN  PTCLDY    70  52  52 S17G23    29.88F
LEE`S SUMMIT   MOCLDY    67  52  58 S13       29.90F
ST JOSEPH      CLOUDY    65  53  65 S9        29.86F
CHILLICOTHE      N/A     60  53  77 VRB3      29.92F
KIRKSVILLE     CLEAR     53  52  96 S8        29.94F

$$
MOZ066>068-077>081-088>096-101>105-030600-
...SOUTHWEST MISSOURI...

CITY           SKY/WX    TMP DP  RH WIND       PRES   REMARKS
SPRINGFIELD    PTCLDY    60  50  69 S9        29.99R
JOPLIN         CLEAR     65  51  60 S10       29.96F

$$
MOZ032>034-039>042-045>050-055>058-069>072-030600-
...CENTRAL MISSOURI...

CITY           SKY/WX    TMP DP  RH WIND       PRES   REMARKS
COLUMBIA       PTCLDY    63  49  60 S7        29.96F
JEFFERSON CITY PTCLDY    66  47  50 SE5       29.96S
ROLLA          MOCLDY    63  42  46 S10       29.99S
SEDALIA        PTCLDY    59  50  72 S7        29.95F
WHITEMAN AFB   PTCLDY    60  51  71 S6        29.92F
WARRENSBURG    PTCLDY    61  50  67 SE6       29.92F
OSAGE BEACH    CLEAR     63  45  51 SE3       29.98S

$$
MOZ051-052-059>065-030600-
...EAST CENTRAL MISSOURI...

CITY           SKY/WX    TMP DP  RH WIND       PRES   REMARKS
ST LOUIS INTL  CLOUDY    70  43  37 S10       29.99F
SPIRIT OF STL  CLOUDY    67  44  43 SW6       29.98R
ST CHARLES     CLOUDY    66  45  46 E3        29.98S

$$
MOZ072>076-082>087-097>100-106>115-030600-
...SOUTH CENTRAL AND SOUTHEAST MISSOURI...

CITY           SKY/WX    TMP DP  RH WIND       PRES   REMARKS
CAPE GIRARDEAU CLEAR     57  48  72 S7        30.03F
FARMINGTON     CLOUDY    61  43  51 SW5       30.06S
POPLAR BLUFF   PTCLDY    55  50  83 CALM      30.02S
WEST PLAINS    CLOUDY    64  42  44 S6        30.04S

$$


USA.gov is the U.S. government's official web portal to all federal, state and local government web resources and services.